Location: Choisy
(48.7685°N, 2.4187°E)
Time: 00:53:06
(UTC+00:00)

Envisat - Pass Details

Date: 04 March 2024
Orbit: 762 x 764 km, 98.3° (Epoch: 12 April)

Event Time Altitude Azimuth Distance (km) Brightness Sun altitude
Rises 03:27:19 0° 14° (NNE) 3,242 6.8 -29.4°
Reaches altitude 10° 03:29:38 10° 14° (NNE) 2,311 5.9 -29.1°
Enters shadow 03:33:57 65° 14° (NNE) 844 3.2 -28.5°
